Location: Wonder Lake State Park
(41.4960°N, 73.6562°W)
Time: 18:30:29
(UTC-04:00)

Daily predictions for brighter satellites

Satellite Brightness Start Highest point End
(mag) Time Altitude Azimuth Time Altitude Azimuth Time Altitude Azimuth
Cosmos 1812 3.8 20:44:28 10° SSW 20:48:14 50° W 20:52:02 10° N
Cosmos 1709 Rocket 4.2 20:46:07 10° N 20:52:25 82° W 20:58:36 10° S
Cosmos 1743 3.4 20:49:43 10° N 20:53:22 37° ENE 20:57:00 10° SSE
Cosmos 1346 4.3 20:52:45 10° SE 20:54:56 21° E 20:57:07 10° NE
Iridium 4 Rocket 3.8 20:50:06 10° N 20:55:03 74° W 21:00:27 10° S
Envisat 3.0 20:51:19 10° SSE 20:56:23 85° ENE 21:01:30 10° NNW
Spot 1 4.2 20:54:40 10° SSE 20:59:16 84° ENE 21:03:37 10° NNW
ASTRO E2 4.3 20:57:42 10° SW 21:00:35 19° S 21:03:15 11° SE
ASTEX 1 4.1 20:57:32 10° SE 21:02:01 37° ENE 21:06:29 10° N
Aureole 3 Rocket 4.1 20:56:15 10° SSE 21:02:47 48° E 21:07:31 10° NNE
Tiangong 2 2.2 21:08:07 10° SSW 21:10:47 25° SSE 21:13:19 11° E
Aureole 1 Rocket 3.2 21:09:19 10° SSE 21:12:19 28° ESE 21:15:00 10° NE
NOSS 2-2 (E) 3.4 21:09:26 10° SSW 21:13:26 86° ESE 21:18:06 10° NE
DNEPR-1 R/B 4.1 21:12:40 10° NNW 21:16:46 45° NE 21:20:18 15° ESE
SL-08 ROCKET BODY 4.5 21:12:26 10° N 21:18:38 86° E 21:24:50 10° S
Meteor 2-4 Rocket 4.0 21:14:47 10° SSE 21:20:10 51° E 21:25:45 10° NNE
USA 186 4.4 21:20:26 10° SW 21:22:50 19° W 21:25:11 10° NW
ISS -2.8 21:20:18 10° SSW 21:23:06 26° SE 21:25:54 10° ENE
Cosmos 1666 2.7 21:20:20 10° N 21:24:02 58° E 21:26:56 16° SSE
Meteor 2-13 Rocket 4.4 21:19:57 10° N 21:26:01 76° E 21:32:04 10° SSE
OAO 2 Rocket 3.9 21:23:02 10° WSW 21:27:33 36° S 21:31:02 16° ESE
Cosmos 923 Rocket 4.0 21:22:20 10° SSW 21:27:40 88° ESE 21:33:01 10° NNE
Cosmos 2184 Rocket 4.0 21:26:09 10° N 21:32:33 86° E 21:38:51 10° S
Cosmos 2074 Rocket 4.0 21:26:29 10° N 21:32:46 89° E 21:39:02 10° S
Cosmos 1536 Rocket 4.4 21:28:41 10° SSW 21:32:53 51° W 21:37:08 10° N
CZ-3A R/B 2.1 21:29:37 10° SSW 21:33:08 21° SSE 21:33:08 21° SSE
Cosmos 1437 4.3 21:32:03 10° SSW 21:35:04 38° WNW 21:38:07 10° N
CZ-4B DEB 4.3 21:32:25 10° SSW 21:35:07 31° W 21:37:51 10° NNW
Helios 1A 4.5 21:31:24 10° SSW 21:35:15 34° W 21:39:07 10° NNW
USA 245 3.5 21:38:45 25° E 21:39:21 28° ENE 21:41:32 10° NNE
Intercosmos 24 4.1 21:37:24 10° N 21:41:19 47° ENE 21:43:05 25° SE
Meteor 1-19 Rocket 4.5 21:35:36 10° SSW 21:41:25 76° W 21:47:12 10° N
YAOGAN 11 4.2 21:40:58 21° SE 21:43:39 58° ENE 21:47:54 10° N
YAOGAN 6 3.4 21:42:06 12° S 21:45:13 45° W 21:48:37 10° NNW
Cosmos 1656 Rocket 4.0 21:39:56 10° NNW 21:45:17 60° WSW 21:49:50 15° S
ERS-1 Rocket 3.1 21:41:29 14° S 21:45:52 77° WSW 21:50:55 10° NNW
MetOp-A 4.1 21:45:09 17° SSE 21:49:17 85° ENE 21:54:41 10° NNW
Meteor 1-23 Rocket 4.2 21:43:49 10° S 21:49:20 70° E 21:54:55 10° NNE
MOS 1-B Rocket 3.9 21:46:03 18° SSE 21:50:28 81° ENE 21:56:48 10° NNW
Cosmos 1726 Rocket 4.4 21:46:47 10° N 21:50:44 34° ENE 21:52:23 25° ESE
Cosmos 405 Rocket 3.9 21:48:33 10° SSW 21:52:06 41° WNW 21:55:44 10° N
GENESIS II 4.1 21:49:15 10° NNW 21:53:14 84° ENE 21:55:01 31° SE
H-2A R/B 2.5 21:52:51 24° SE 21:55:24 44° ENE 22:00:09 10° N
Cosmos 1980 Rocket 4.5 21:54:29 10° NNE 21:56:34 12° NE 21:58:38 10° ENE
Cosmos 2058 Rocket 4.1 21:53:16 10° NNE 21:57:09 30° ENE 21:58:34 25° ESE
Meteor 1-15 Rocket 4.2 21:52:25 10° N 21:58:02 70° E 22:01:25 24° SSE
Cosmos 2112 Rocket 4.2 21:55:18 10° SSW 22:00:31 73° WNW 22:05:44 10° NNE
Cosmos 1943 Rocket 4.4 21:57:07 10° WNW 22:00:55 19° W 22:04:42 10° SW
Cosmos 192 4.3 21:56:16 10° SSW 22:01:10 86° WNW 22:06:07 10° NNE
Cosmos 1025 Rocket 2.9 21:58:34 17° S 22:01:48 90° NE 22:06:05 10° N
CENTAUR R/B 3.6 21:55:13 10° NW 22:03:00 57° WSW 22:09:18 18° S
Cosmos 1441 Rocket 3.7 22:01:18 11° SSW 22:04:48 57° W 22:08:30 10° N
Nadezhda 1 Rocket 4.3 22:01:38 10° SSW 22:07:56 68° W 22:14:21 10° N
Cosmos 1624 Rocket 4.1 22:03:12 10° NNW 22:08:27 63° ENE 22:10:57 31° SE
PSLV R/B 2.9 22:07:12 10° W 22:10:20 74° S 22:10:40 64° SE
Cosmos 2154 Rocket 4.1 22:09:47 10° N 22:16:10 82° W 22:20:26 22° S
SL-08 RB Rocket 3.6 22:14:43 32° S 22:16:46 86° W 22:21:15 10° NNW
ARGOS 3.3 22:13:33 24° S 22:16:53 74° WSW 22:22:20 10° NNW
COSMOS 2406 4.3 22:11:46 10° SW 22:17:14 45° WNW 22:22:43 10° NNE
Nimbus 7 Rocket 4.4 22:11:37 10° NNE 22:17:42 79° ESE 22:22:26 18° S
SL-27 R/B 3.8 22:15:18 10° SW 22:18:47 41° WNW 22:22:16 10° N
SL-8 Rocket 4.4 22:14:18 10° N 22:20:22 49° ENE 22:23:02 31° SE
Landsat 7 3.9 22:21:40 38° SE 22:23:20 61° ENE 22:28:03 10° N
SPOT 5 3.0 22:23:05 29° SSW 22:25:06 56° W 22:29:23 10° NNW
H-2A R/B 2.8 22:24:49 35° ESE 22:25:59 43° ENE 22:30:16 10° N
Cosmos 2278 4.0 22:20:50 10° NNW 22:26:28 55° ENE 22:28:45 34° ESE
Cosmos 2056 Rocket 3.4 22:22:00 10° NNW 22:27:13 85° ENE 22:29:09 39° SSE
Cosmos 2082 Rocket 2.7 22:28:02 34° SE 22:28:59 37° ESE 22:34:08 10° NE
Cosmos 1626 Rocket 4.3 22:37:18 34° E 22:37:18 34° E 22:41:06 10° NNE
Iridium 82 4.3 22:33:39 10° N 22:37:12 82° E 22:37:24 77° SE
Terra 1.9 22:37:12 45° SE 22:38:24 60° ENE 22:43:06 10° N
CZ-4B R/B 4.2 22:34:17 10° NNE 22:38:53 34° E 22:39:09 34° ESE
Cosmos 839 Rocket 4.3 22:34:42 10° NNW 22:41:17 84° ENE 22:44:54 35° SE
Cosmos 2341 Rocket 4.2 22:37:56 10° NNW 22:44:14 68° W 22:47:39 29° SSW
Cosmos 967 Rocket 4.4 22:38:46 10° SSW 22:45:02 89° ESE 22:51:21 10° NNE
Cosmos 2369 3.7 22:39:20 10° NNW 22:45:06 77° ENE 22:46:58 44° SE
SPOT 1/Viking Rocket 4.0 22:44:17 31° SSW 22:46:31 54° W 22:51:35 10° NNW
COSMOS 2487 2.7 22:47:21 59° NE 22:47:21 59° NE 22:50:24 10° NNE
Tiangong 2 2.9 22:44:08 10° WSW 22:45:36 25° WSW 22:45:36 25° WSW
Cosmos 1437 Rocket 3.9 22:44:54 10° NNW 22:48:25 35° W 22:49:25 30° SW
Cosmos 1697 Rocket 3.2 22:49:24 10° NNW 22:54:49 47° ENE 22:56:25 37° ESE
IGS 5A 3.3 22:56:43 76° SSE 22:57:03 89° ENE 23:01:14 10° NNW
ISS -2.4 22:56:22 10° W 22:59:29 39° NNW 23:02:37 10° NE
Cosmos 1452 Rocket 3.5 22:54:14 10° NNW 22:59:29 68° ENE 23:00:34 53° SE
Cosmos 2218 Rocket 3.9 22:54:27 10° N 23:00:38 84° E 23:02:39 46° SSE
Cosmos 1271 Rocket 4.1 23:02:42 10° NNE 23:05:37 29° ENE 23:05:37 29° ENE
Cosmos 2228 3.4 23:02:06 10° NNW 23:06:20 54° W 23:06:54 50° SW
Cosmos 1602 Rocket 3.4 23:10:37 79° E 23:10:37 79° E 23:14:56 10° N
deb Chang Zheng 4 3.5 23:06:40 10° N 23:11:00 77° WNW 23:11:26 68° SW
Cosmos 921 Rocket 3.7 23:08:06 10° NNW 23:12:24 45° WSW 23:12:53 43° WSW
Cosmos 1833 Rocket 2.5 23:11:23 53° S 23:12:45 80° ESE 23:18:24 10° NNE
Cosmos 1656 3.5 23:09:51 10° NNW 23:15:20 86° WSW 23:16:17 62° SSE
Cosmos 1066 Rocket 4.4 23:15:05 41° SSW 23:16:59 67° WNW 23:22:35 10° N
Lacrosse 5 rocket 4.4 23:16:49 10° NNW 23:19:11 14° NNE 23:21:34 10° NE
Meteor 1-21 4.2 23:19:44 58° SE 23:20:28 64° E 23:26:08 10° NNE
SL-19 R/B 4.3 23:15:42 10° N 23:21:03 67° WNW 23:22:49 41° SW
Cosmos 468 4.3 23:24:10 70° S 23:24:46 82° ESE 23:30:04 10° NNE
CZ-4 R/B 4.0 23:20:30 10° N 23:25:31 74° WNW 23:26:31 56° SW
Cosmos 1766 3.7 23:21:55 10° N 23:25:11 60° N 23:25:11 60° N
Nadezhda 3 Rocket 4.1 23:29:12 53° SE 23:30:20 61° E 23:36:36 10° NNE
Meteor 1-4 Rocket 3.8 23:27:35 10° NNW 23:30:20 37° WNW 23:30:20 37° WNW
USA 267 3.1 23:24:29 10° NE 23:31:02 74° SE 23:34:02 35° SSW
Meteor 2-14 Rocket 4.4 23:27:46 10° N 23:33:52 79° W 23:35:09 57° SSW
Cosmos 1758 4.5 23:30:54 10° N 23:33:51 36° NE 23:33:51 36° NE
H-2A R/B 3.8 23:33:29 18° WSW 23:35:02 21° W 23:38:45 10° NW
Cosmos 1980 Rocket 2.2 23:36:04 10° NNW 23:41:43 67° ENE 23:42:26 60° ESE
SME Rocket 3.7 23:46:35 64° ESE 23:47:05 68° ENE 23:51:29 10° N
SeaSat 1 2.9 23:46:39 47° ENE 23:47:09 49° ENE 23:51:55 10° NNW
Cosmos 1821 Rocket 4.2 23:43:08 10° N 23:49:19 58° E 23:50:18 53° ESE
Cosmos 2322 Rocket 3.6 23:45:01 10° N 23:50:00 30° NE 23:51:42 25° E
